SORCE

Last updated on Wed Sep 09 2026 00:02:52 GMT+0000 (Coordinated Universal Time)

1 27651U 03004A 26251.14623675 .00002123 00000+0 16093-3 0 9997 2 27651 39.9907 148.2203 0018727 286.4245 73.4491 15.04082819284398
UTC large
Height (km)
Speed (km/s)
/
Latitude / Longitude
Inclination (degrees)
Orbital Period (minutes)
Azimuth
Elevation
Range (km)
Doppler Factor

Next 0 passes for location: London (51.5072 / 0.1276)

No passes found over London.
SORCE